TimeCDT,TemperatureF,Dew PointF,Humidity,Sea Level PressureIn,VisibilityMPH,Wind Direction,Wind SpeedMPH,Gust SpeedMPH,PrecipitationIn,Events,Conditions,WindDirDegrees,DateUTC
12:52 AM,39.9,37.9,93,29.72,10.0,ENE,20.7,26.5,N/A,,Overcast,70,2013-04-11 05:52:00
1:52 AM,39.9,37.9,93,29.69,7.0,ENE,19.6,25.3,N/A,,Overcast,70,2013-04-11 06:52:00
2:52 AM,39.9,37.9,93,29.68,3.0,East,20.7,31.1,0.00,Rain,Light Rain,90,2013-04-11 07:52:00
3:01 AM,39.2,37.4,93,29.67,2.5,East,17.3,29.9,0.00,Rain,Light Rain,90,2013-04-11 08:01:00
3:27 AM,39.2,37.4,93,29.66,1.8,East,17.3,-,0.00,Rain,Light Rain,90,2013-04-11 08:27:00
3:37 AM,39.2,37.4,93,29.64,2.5,East,18.4,-,0.01,Rain,Light Rain,90,2013-04-11 08:37:00
3:47 AM,39.2,37.4,93,29.64,3.0,East,18.4,-,0.01,,Overcast,90,2013-04-11 08:47:00
3:52 AM,39.9,37.9,93,29.66,3.0,East,17.3,-,0.01,,Overcast,90,2013-04-11 08:52:00
4:03 AM,39.2,37.4,93,29.65,1.8,East,17.3,-,N/A,,Overcast,90,2013-04-11 09:03:00
4:19 AM,39.2,39.2,100,29.65,1.5,East,16.1,-,N/A,,Overcast,100,2013-04-11 09:19:00
4:52 AM,39.9,39.0,97,29.68,1.8,ESE,13.8,-,0.00,Rain,Light Rain,110,2013-04-11 09:52:00
5:17 AM,39.2,39.2,100,29.65,1.5,East,13.8,-,0.01,Rain,Light Rain,90,2013-04-11 10:17:00
5:32 AM,39.2,39.2,100,29.64,1.5,East,13.8,-,0.01,Rain,Light Rain,90,2013-04-11 10:32:00
5:48 AM,39.2,39.2,100,29.63,2.0,East,16.1,-,0.01,Rain,Light Rain,90,2013-04-11 10:48:00
5:52 AM,39.9,39.0,97,29.65,2.5,East,19.6,-,0.01,,Overcast,100,2013-04-11 10:52:00
6:01 AM,41.0,39.2,93,29.63,4.0,East,16.1,-,N/A,,Overcast,90,2013-04-11 11:01:00
6:12 AM,41.0,39.2,93,29.62,7.0,East,15.0,-,N/A,,Overcast,90,2013-04-11 11:12:00
6:48 AM,41.0,39.2,93,29.61,6.0,East,16.1,-,N/A,,Overcast,90,2013-04-11 11:48:00
6:52 AM,41.0,39.0,93,29.64,6.0,East,12.7,20.7,N/A,,Overcast,90,2013-04-11 11:52:00
7:11 AM,41.0,39.2,93,29.64,7.0,East,12.7,-,N/A,,Overcast,100,2013-04-11 12:11:00
7:25 AM,41.0,39.2,93,29.65,2.5,East,10.4,-,N/A,,Overcast,100,2013-04-11 12:25:00
7:35 AM,41.0,39.2,93,29.64,1.8,East,9.2,-,N/A,,Overcast,100,2013-04-11 12:35:00
7:52 AM,41.0,39.9,96,29.65,1.5,East,11.5,-,N/A,,Overcast,100,2013-04-11 12:52:00
8:52 AM,42.1,41.0,96,29.63,1.0,East,10.4,-,N/A,,Overcast,100,2013-04-11 13:52:00
9:47 AM,42.8,41.0,93,29.62,0.8,East,9.2,-,N/A,,Overcast,100,2013-04-11 14:47:00
10:52 AM,44.1,43.0,96,29.63,1.0,East,6.9,-,0.01,,Overcast,90,2013-04-11 15:52:00
11:03 AM,44.6,42.8,93,29.61,3.0,East,4.6,-,N/A,,Overcast,100,2013-04-11 16:03:00
11:33 AM,44.6,42.8,93,29.62,6.0,East,3.5,-,N/A,,Overcast,90,2013-04-11 16:33:00
11:52 AM,45.0,42.1,90,29.62,4.0,Calm,Calm,-,N/A,,Overcast,0,2013-04-11 16:52:00
12:13 PM,44.6,42.8,93,29.61,1.8,South,3.5,-,N/A,,Overcast,190,2013-04-11 17:13:00
12:52 PM,46.0,44.1,93,29.62,1.8,West,8.1,-,0.00,,Overcast,270,2013-04-11 17:52:00
1:00 PM,46.4,44.6,93,29.60,3.0,West,8.1,-,N/A,,Overcast,270,2013-04-11 18:00:00
1:11 PM,44.6,42.8,93,29.61,2.5,West,6.9,-,N/A,,Overcast,260,2013-04-11 18:11:00
1:25 PM,46.4,42.8,87,29.60,3.0,WSW,9.2,-,N/A,,Overcast,250,2013-04-11 18:25:00
1:37 PM,46.4,42.8,87,29.60,4.0,WSW,8.1,-,N/A,,Overcast,240,2013-04-11 18:37:00
1:52 PM,46.0,43.0,89,29.61,3.0,WSW,6.9,-,N/A,,Overcast,240,2013-04-11 18:52:00
2:05 PM,46.4,42.8,87,29.60,2.5,SSW,8.1,-,N/A,,Overcast,210,2013-04-11 19:05:00
2:14 PM,46.4,42.8,87,29.60,3.0,SSW,6.9,-,N/A,,Mostly Cloudy,210,2013-04-11 19:14:00
2:18 PM,46.4,42.8,87,29.60,2.5,SSW,4.6,-,N/A,,Overcast,200,2013-04-11 19:18:00
2:31 PM,46.4,42.8,87,29.60,2.5,SSW,5.8,-,N/A,,Overcast,210,2013-04-11 19:31:00
2:40 PM,46.4,42.8,87,29.60,4.0,SSW,6.9,-,N/A,,Overcast,210,2013-04-11 19:40:00
2:52 PM,46.0,43.0,89,29.61,5.0,SSW,6.9,-,N/A,,Overcast,210,2013-04-11 19:52:00
3:01 PM,46.4,42.8,87,29.60,4.0,SW,6.9,-,N/A,,Overcast,220,2013-04-11 20:01:00
3:15 PM,46.4,42.8,87,29.60,1.8,SW,9.2,-,N/A,,Overcast,220,2013-04-11 20:15:00
3:24 PM,46.4,44.6,93,29.59,1.2,SSW,9.2,-,0.00,Rain,Light Rain,200,2013-04-11 20:24:00
3:30 PM,46.4,44.6,93,29.60,1.8,SSW,9.2,-,0.00,Rain,Light Rain,200,2013-04-11 20:30:00
3:35 PM,46.4,44.6,93,29.60,3.0,SSW,6.9,-,0.00,,Overcast,200,2013-04-11 20:35:00
3:52 PM,46.9,44.1,90,29.62,10.0,SSW,8.1,-,0.00,,Overcast,200,2013-04-11 20:52:00
4:04 PM,46.4,42.8,87,29.59,2.5,SSW,6.9,-,0.00,Rain,Light Rain,200,2013-04-11 21:04:00
4:08 PM,46.4,42.8,87,29.59,1.2,SSW,8.1,-,0.02,Rain,Light Rain,210,2013-04-11 21:08:00
4:32 PM,46.4,42.8,87,29.60,3.0,SW,16.1,26.5,0.03,Rain,Light Rain,230,2013-04-11 21:32:00
4:40 PM,46.4,44.6,93,29.59,2.5,WSW,17.3,-,0.03,,Overcast,240,2013-04-11 21:40:00
4:44 PM,44.6,42.8,93,29.59,1.5,WSW,19.6,25.3,0.04,Rain,Light Rain,240,2013-04-11 21:44:00
4:52 PM,45.0,42.1,90,29.60,2.0,SW,17.3,-,0.04,Rain,Light Rain,230,2013-04-11 21:52:00
5:00 PM,44.6,42.8,93,29.60,10.0,WSW,16.1,-,0.00,,Overcast,240,2013-04-11 22:00:00
5:18 PM,44.6,41.0,87,29.59,1.8,WSW,18.4,26.5,0.00,,Overcast,240,2013-04-11 22:18:00
5:35 PM,42.8,41.0,93,29.60,3.0,WSW,18.4,-,0.00,,Overcast,240,2013-04-11 22:35:00
5:43 PM,42.8,39.2,87,29.60,3.0,SW,21.9,26.5,0.01,Rain,Light Rain,230,2013-04-11 22:43:00
5:52 PM,42.1,39.9,92,29.61,5.0,WSW,18.4,-,0.01,,Overcast,240,2013-04-11 22:52:00
6:13 PM,41.0,39.2,93,29.61,2.0,WSW,17.3,-,N/A,,Overcast,240,2013-04-11 23:13:00
6:23 PM,42.8,39.2,87,29.60,8.0,WSW,13.8,23.0,N/A,,Overcast,240,2013-04-11 23:23:00
6:34 PM,42.8,37.4,81,29.60,10.0,WSW,16.1,21.9,N/A,,Overcast,250,2013-04-11 23:34:00
6:42 PM,42.8,37.4,81,29.59,10.0,WSW,16.1,-,N/A,,Overcast,250,2013-04-11 23:42:00
6:49 PM,41.0,37.4,87,29.60,10.0,WSW,21.9,-,N/A,,Overcast,250,2013-04-11 23:49:00
6:52 PM,39.9,37.0,89,29.62,10.0,WSW,19.6,28.8,N/A,,Overcast,250,2013-04-11 23:52:00
7:21 PM,39.2,35.6,87,29.62,10.0,WSW,17.3,-,N/A,,Overcast,240,2013-04-12 00:21:00
7:52 PM,39.0,36.0,89,29.64,7.0,WSW,13.8,-,N/A,,Overcast,250,2013-04-12 00:52:00
8:48 PM,37.4,33.8,87,29.61,7.0,WSW,17.3,-,0.00,,Overcast,250,2013-04-12 01:48:00
8:52 PM,37.9,34.0,86,29.62,8.0,West,16.1,-,0.00,,Overcast,260,2013-04-12 01:52:00
9:45 PM,37.4,33.8,87,29.63,10.0,WSW,15.0,-,N/A,,Overcast,250,2013-04-12 02:45:00
9:52 PM,37.0,33.1,86,29.64,10.0,WSW,15.0,-,N/A,,Overcast,250,2013-04-12 02:52:00
10:52 PM,37.0,32.0,82,29.65,10.0,WSW,16.1,-,N/A,,Overcast,240,2013-04-12 03:52:00
11:52 PM,37.0,32.0,82,29.65,10.0,WSW,11.5,-,N/A,,Overcast,240,2013-04-12 04:52:00